GALAXY 35 (G-35)

Last updated on Thu Sep 24 2026 00:03:20 GMT+0000 (Coordinated Universal Time)

1 54741U 22170A 26266.44748390 -.00000164 00000+0 00000+0 0 9994 2 54741 0.0133 171.0553 0002040 4.8489 254.4053 1.00272563 13879
UTC large
Height (km)
Speed (km/s)
/
Latitude / Longitude
Inclination (degrees)
Orbital Period (minutes)
Azimuth
Elevation
Range (km)
Doppler Factor

Next 0 passes for location: London (51.5072 / 0.1276)

No passes found over London.
GALAXY 35 (G-35)